sat.trackr.live / text

‹ back to catalog

STARLINK-3292

NORAD 50174 · 2021-125U

PAYLOAD ACTIVE UNKNOWN

§ Identity

Operator
Country
US
Launch date
2021-12-18
Launch site
AFWTR
Launch vehicle
Mass (kg)
RCS (m²)

Purposes: comms

External: N2YO · Heavens-Above · Gunter

§ Orbital elements

Epoch: 2026-09-20T00:48:04.140000Z

Period
93.85 min
Inclination
53.1589°
Eccentricity
0.0001019
Mean motion
15.34382344 rev/d
Perigee alt
462.1 km
Apogee alt
463.5 km
Semi-major
6,840.9 km
B*
-4.8858e-6
RAAN
75.7373°
Arg perigee
84.0593°
Mean anomaly
276.0525°
Rev number
26,627

§ Raw data

STARLINK-32921 50174U 21125U   26263.03338125 -.00000541  00000+0 -48858-5 0  99912 50174  53.1589  75.7373 0001019  84.0593 276.0525 15.34382344266279

JSON: /api/v1/satellites/50174 · /tle

For live sub-satellite position, see the globe view (requires WebGL).

§ Visibility from observer

Set your observer location to see the next 7 days of passes ≥ 10°. The values pass through the URL so the page stays shareable.

No JS? Fill the form by hand. The geolocation button needs JavaScript.